[[{"header":{"parameterUnit":"m.s-1","parameterCategory":1,"la1":30.2991,"la2":30.254,"lo1":-89.0895,"lo2":-89.0444,"dy":0.0017,"dx":0.0017,"nx":28,"ny":28,"refTime":"2024-07-30T03:00:00:Z","depth":0,"parameterNumber":2,"parameterNumberName":"U-component_of_WINDS"},"data":[0,0,0,0,0,0,0,0,0,0,0,0,0,0,0,0,0,0,0,0,0,0,0,0,0,0,0,0,0,0,0,0,0,0,0,0,0,0,0,0,0,0,0,0,0,0,0,0,0,0,0,0,0,0,0,0,0,0,4.3681,4.3683,0,4.3822,4.3824,4.3826,4.377,4.3766,4.3763,4.376,4.3908,4.3915,4.3922,0,0,0,0,0,0,0,0,0,0,0,0,0,4.3366,4.3372,4.3681,4.3683,4.3684,4.3822,4.3824,4.3826,4.377,4.3766,4.3762,4.3758,4.3906,4.3914,4.3922,0,0,0,0,0,0,0,0,0,0,0,0,0,4.3505,4.3374,4.3681,4.3673,4.3674,4.3822,4.3824,4.3827,4.3771,4.3766,4.3761,4.3757,4.3903,4.3913,4.3923,4.4088,0,0,4.3956,4.396,0,0,0,0,0,0,0,0,4.3497,4.3517,4.3672,4.3674,4.3675,4.3773,4.3767,4.3914,4.3772,4.3734,4.376,4.3754,4.3867,4.388,4.3918,4.4095,4.4101,4.3957,4.3963,4.3968,4.3971,0,0,0,0,0,0,0,4.3488,4.351,4.3737,4.3675,4.3676,4.3664,4.3678,4.3795,4.3827,4.3737,4.3733,4.3751,4.3867,4.3908,4.3921,4.4104,4.3956,4.3966,4.3972,4.3976,4.4425,4.4431,0,0,0,0,0,0,4.3477,4.3503,4.3732,4.3741,4.3572,4.3674,4.369,4.3747,4.3826,4.3833,4.3755,4.3748,4.3892,4.3909,4.3926,4.4126,4.3967,4.3977,4.3983,4.442,4.4427,4.4433,0,0,0,0,0,0,4.3471,4.3498,4.3727,4.3621,4.3649,4.3684,4.3749,4.3752,4.3793,4.3839,4.3845,4.3791,4.3889,4.3911,4.4049,4.413,4.3982,4.3992,4.4413,4.4422,4.443,4.4525,0,0,0,0,0,0,4.3462,4.3496,4.3558,4.3623,4.3655,4.3846,4.3754,4.3759,4.3811,4.3803,4.3874,4.3881,4.3887,4.4033,4.4059,4.4142,4.4,4.4406,4.4417,4.4427,4.4515,4.4536,4.4554,0,0,0,0,0,4.3451,4.358,4.3562,4.359,4.3733,4.3851,4.3869,4.3873,4.3818,4.3881,4.3911,4.3879,4.4117,4.4048,4.4076,4.4164,4.4401,4.4414,4.4426,4.4506,4.4532,4.4553,0,0,0,0,0,0,4.3524,4.3588,4.3569,4.3722,4.3781,4.3841,4.3921,4.3899,4.3976,4.3965,4.3967,4.3984,4.4126,4.4158,4.408,4.4328,4.4251,4.427,4.4302,4.4327,4.4346,4.4335,4.4009,0,0,0,0,0,4.3558,4.3648,4.3699,4.3829,4.386,4.3886,4.3937,4.3934,4.3996,4.4021,4.4061,4.4124,4.4213,4.4271,4.4355,4.4519,4.4535,4.4594,4.4613,4.4629,4.4645,4.4737,4.4764,4.4474,4.4474,4.4474,0,0,4.363,4.3675,4.3732,4.3845,4.3891,4.3985,4.3907,4.4009,4.4079,4.4037,4.417,4.4201,4.4271,4.4423,4.4492,4.4454,4.4729,4.4645,4.4657,4.4665,4.4752,4.478,4.4804,4.4483,4.4481,4.448,0,0,4.3808,4.3851,4.3965,4.4012,4.4082,4.4099,4.4126,4.419,4.4209,4.4342,4.4313,4.4397,4.4549,4.4601,4.4647,4.4847,4.4821,4.4874,4.4976,4.5065,4.5088,4.5108,4.5181,4.5207,4.489,4.4891,4.4891,0,4.3888,4.4027,4.4027,4.4132,4.4183,4.4149,4.4266,4.4312,4.4407,4.4444,4.44,4.4592,4.4637,4.4801,4.485,4.4888,4.4921,4.4866,4.5084,4.5104,4.5123,4.5193,4.522,4.4897,4.4896,4.4895,4.4895,0,4.4123,4.422,4.4304,4.4396,4.4457,4.4568,4.4585,4.4647,4.464,4.4662,4.4798,4.485,4.4946,4.4984,4.4978,4.5149,4.5124,4.5082,4.5005,4.5157,4.5223,4.5249,4.4906,4.4903,4.4902,4.49,0,0,4.4352,4.4442,4.4473,4.4515,4.4591,4.4666,4.4776,4.4868,4.4923,4.4989,4.5083,4.5213,4.5176,4.5228,4.5228,4.5306,4.5463,4.5255,4.5257,4.5293,4.5657,4.5688,4.5719,4.5446,4.5451,4.5455,4.5651,0,4.4537,4.4728,4.4732,4.4908,4.4999,4.4968,4.5064,4.5122,4.5145,4.5227,4.5253,4.5346,4.5289,4.5321,4.5396,4.5428,4.5536,4.5413,4.5534,4.5539,4.5519,4.5753,4.5786,4.5969,4.5677,4.5681,4.5684,0,4.4779,4.4853,4.5038,4.5102,4.514,4.5226,4.5312,4.539,4.5455,4.5467,4.5526,4.5514,4.5628,4.5546,4.5705,4.5621,4.5671,4.5694,4.5701,4.5714,4.5621,4.5773,4.6028,4.6056,4.5724,4.5721,4.5718,0,4.4929,4.5075,4.5205,4.5242,4.5319,4.5381,4.5416,4.5476,4.5532,4.5607,4.5644,4.5732,4.5781,4.585,4.5863,4.5802,4.6022,4.5941,4.6037,4.6037,4.6085,4.6082,4.6353,4.6115,4.6115,4.6114,4.6114,0,4.5137,4.5252,4.5274,4.5355,4.5483,4.5487,4.5615,4.5645,4.5699,4.5786,4.5765,4.5847,4.5859,4.5944,4.5955,4.6086,4.6108,4.6122,4.6123,4.6124,4.6123,4.6158,4.6146,4.6122,4.612,4.6119,4.6117,0,4.5327,4.5346,4.5486,4.5548,4.5566,4.5659,4.5712,4.579,4.5811,4.5921,4.5948,4.5982,4.6082,4.6101,4.6219,4.6227,4.6383,4.6371,4.6361,4.636,4.6455,4.6447,4.6759,4.6801,4.6535,4.6537,4.6539,0,4.5458,4.5546,4.5617,4.5674,4.5712,4.5803,4.586,4.5867,4.5927,4.6009,4.6078,4.6175,4.6254,4.6415,4.6452,4.6542,4.6534,4.6637,4.6547,4.6546,4.6538,4.6533,4.6542,4.6655,4.6657,4.666,4.6662,0,4.5691,4.5697,4.5779,4.5865,4.5934,4.6002,4.6067,4.6115,4.6131,4.6201,4.6302,4.6363,4.6484,4.6582,4.6673,4.6711,4.6691,4.6689,4.6717,4.6719,4.671,4.6718,4.6409,4.6683,4.668,4.6679,4.6678,4.6677,4.5857,4.5935,4.5997,4.609,4.6139,4.6201,4.6278,4.6308,4.6393,4.6491,4.6491,4.6603,4.6668,4.6787,4.6831,4.692,4.6887,4.6926,4.6937,4.6947,4.6956,4.6695,4.6936,4.6936,4.6935,4.6935,4.6934,0,4.609,4.6129,4.6214,4.6306,4.638,4.6352,4.6423,4.6487,4.6585,4.6647,4.6725,4.6843,4.6938,4.6982,4.7076,4.7139,4.7132,4.7164,4.716,4.7169,4.6979,4.6947,4.7168,4.7168,4.7168,4.7167,4.7167,4.7167,4.622,4.635,4.6363,4.6518,4.6556,4.6665,4.6708,4.6766,4.6815,4.6947,4.7026,4.7053,4.7109,4.7207,4.7294,4.7304,4.7341,4.7378,4.7384,4.7206,4.7182,4.716,4.7129,4.7385,4.7385,4.7567,4.7568,4.757]},{"header":{"parameterUnit":"m.s-1","parameterCategory":1,"la1":30.2991,"la2":30.254,"lo1":-89.0895,"lo2":-89.0444,"dy":0.0017,"dx":0.0017,"nx":28,"ny":28,"refTime":"2024-07-30T03:00:00:Z","depth":0,"parameterNumber":3,"parameterNumberName":"V-component_of_WINDS"},"data":[0,0,0,0,0,0,0,0,0,0,0,0,0,0,0,0,0,0,0,0,0,0,0,0,0,0,0,0,0,0,0,0,0,0,0,0,0,0,0,0,0,0,0,0,0,0,0,0,0,0,0,0,0,0,0,0,0,0,-1.9469,-1.947,0,-1.9525,-1.9526,-1.9526,-1.9516,-1.9515,-1.9514,-1.9513,-1.9568,-1.9571,-1.9573,0,0,0,0,0,0,0,0,0,0,0,0,0,-1.9353,-1.9355,-1.9469,-1.947,-1.9471,-1.9525,-1.9526,-1.9527,-1.9517,-1.9515,-1.9514,-1.9513,-1.9568,-1.957,-1.9573,0,0,0,0,0,0,0,0,0,0,0,0,0,-1.9405,-1.9355,-1.9469,-1.9472,-1.9473,-1.9525,-1.9526,-1.9527,-1.9517,-1.9515,-1.9514,-1.9512,-1.9567,-1.957,-1.9574,-1.9625,0,0,-1.9585,-1.9586,0,0,0,0,0,0,0,0,-1.9402,-1.941,-1.9471,-1.9472,-1.9473,-1.9512,-1.9505,-1.956,-1.9517,-1.95,-1.9513,-1.9512,-1.9551,-1.9556,-1.9569,-1.9628,-1.963,-1.9585,-1.9587,-1.9589,-1.959,0,0,0,0,0,0,0,-1.9399,-1.9407,-1.9491,-1.9472,-1.9473,-1.947,-1.9476,-1.9515,-1.9533,-1.9501,-1.9501,-1.9508,-1.9551,-1.9566,-1.957,-1.9631,-1.9585,-1.9588,-1.959,-1.9592,-1.9736,-1.9737,0,0,0,0,0,0,-1.9394,-1.9404,-1.949,-1.9493,-1.9433,-1.9474,-1.948,-1.9501,-1.9533,-1.9536,-1.9509,-1.9507,-1.956,-1.9566,-1.9572,-1.9635,-1.9589,-1.9592,-1.9594,-1.9734,-1.9736,-1.9738,0,0,0,0,0,0,-1.9392,-1.9402,-1.9487,-1.9448,-1.9459,-1.9477,-1.9501,-1.9503,-1.9518,-1.9538,-1.9541,-1.9521,-1.956,-1.9567,-1.9613,-1.9637,-1.9594,-1.9597,-1.9732,-1.9735,-1.9737,-1.9761,0,0,0,0,0,0,-1.9388,-1.9401,-1.9421,-1.9449,-1.9461,-1.9527,-1.9502,-1.9505,-1.9524,-1.9522,-1.955,-1.9553,-1.9559,-1.9607,-1.9616,-1.9641,-1.96,-1.973,-1.9733,-1.9736,-1.9758,-1.9764,-1.9769,0,0,0,0,0,-1.9384,-1.9425,-1.9422,-1.9433,-1.9487,-1.9528,-1.9535,-1.9542,-1.9526,-1.9546,-1.956,-1.9552,-1.9633,-1.9612,-1.9622,-1.9648,-1.9728,-1.9732,-1.9736,-1.9756,-1.9763,-1.9769,0,0,0,0,0,0,-1.9398,-1.9429,-1.9426,-1.9477,-1.95,-1.9527,-1.9552,-1.9549,-1.9577,-1.9573,-1.958,-1.9586,-1.9632,-1.9645,-1.9621,-1.97,-1.9678,-1.9684,-1.969,-1.9697,-1.9703,-1.9698,-1.9603,0,0,0,0,0,-1.9408,-1.944,-1.9464,-1.9507,-1.9519,-1.9534,-1.9552,-1.9555,-1.9579,-1.9589,-1.9605,-1.9628,-1.9659,-1.9679,-1.9708,-1.976,-1.9766,-1.9783,-1.9789,-1.9793,-1.9798,-1.9827,-1.9835,-1.975,-1.975,-1.975,0,0,-1.9427,-1.9447,-1.9467,-1.951,-1.9529,-1.9561,-1.9542,-1.9577,-1.9601,-1.9594,-1.9638,-1.9651,-1.9677,-1.9726,-1.9749,-1.9738,-1.9823,-1.9798,-1.9801,-1.9804,-1.9832,-1.984,-1.9847,-1.9753,-1.9752,-1.9752,0,0,-1.9478,-1.9497,-1.9535,-1.9554,-1.9583,-1.9592,-1.9602,-1.9629,-1.9638,-1.9682,-1.9678,-1.9706,-1.9759,-1.9778,-1.9794,-1.9855,-1.9849,-1.9864,-1.9892,-1.992,-1.9927,-1.9933,-1.9954,-1.9962,-1.9869,-1.9869,-1.9869,0,-1.9498,-1.9547,-1.9554,-1.959,-1.961,-1.9606,-1.9644,-1.9662,-1.9699,-1.9712,-1.97,-1.9767,-1.9784,-1.9838,-1.9853,-1.9866,-1.9877,-1.986,-1.9926,-1.9932,-1.9937,-1.9958,-1.9966,-1.987,-1.987,-1.987,-1.987,0,-1.957,-1.9604,-1.9631,-1.9668,-1.969,-1.9727,-1.974,-1.9762,-1.9763,-1.9774,-1.982,-1.9841,-1.9875,-1.9888,-1.9889,-1.9942,-1.9935,-1.9924,-1.9902,-1.9947,-1.9966,-1.9974,-1.9873,-1.9872,-1.9872,-1.9871,0,0,-1.963,-1.9671,-1.9681,-1.9698,-1.973,-1.9757,-1.9794,-1.9828,-1.9846,-1.9872,-1.9903,-1.9948,-1.9939,-1.9958,-1.9962,-1.9986,-2.0033,-1.9973,-1.9974,-1.9983,-2.0093,-2.01,-2.0109,-2.003,-2.0031,-2.0032,-2.009,0,-1.9684,-1.975,-1.9758,-1.9817,-1.9849,-1.9846,-1.9879,-1.9902,-1.9913,-1.9942,-1.9954,-1.9986,-1.9972,-1.9984,-2.0008,-2.0022,-2.0055,-2.0018,-2.0058,-2.0059,-2.0051,-2.0119,-2.0127,-2.018,-2.0098,-2.0099,-2.01,0,-1.9756,-1.9785,-1.9846,-1.9875,-1.9889,-1.9918,-1.995,-1.9977,-2.0004,-2.001,-2.0032,-2.0033,-2.0071,-2.0048,-2.0101,-2.0076,-2.0093,-2.0102,-2.0104,-2.0108,-2.0082,-2.0124,-2.0197,-2.0205,-2.0112,-2.0111,-2.011,0,-1.9793,-1.9848,-1.9892,-1.9906,-1.9941,-1.9961,-1.9976,-2.0001,-2.0022,-2.005,-2.0063,-2.0095,-2.0112,-2.0137,-2.0146,-2.0129,-2.0198,-2.0176,-2.0204,-2.0204,-2.0218,-2.0217,-2.0295,-2.023,-2.023,-2.023,-2.023,0,-1.9853,-1.989,-1.9909,-1.9937,-1.9979,-1.9988,-2.003,-2.0044,-2.0067,-2.0096,-2.0096,-2.0124,-2.0135,-2.0164,-2.0172,-2.0214,-2.0222,-2.0228,-2.023,-2.0228,-2.0227,-2.0239,-2.0235,-2.0232,-2.0231,-2.0231,-2.0231,0,-1.9901,-1.9916,-1.9964,-1.9993,-2.0001,-2.0031,-2.0056,-2.0082,-2.0094,-2.0132,-2.0141,-2.016,-2.0194,-2.0207,-2.0248,-2.0253,-2.0303,-2.0301,-2.0294,-2.0294,-2.0322,-2.0319,-2.0409,-2.0422,-2.0349,-2.035,-2.035,0,-1.9938,-1.9967,-2.0,-2.002,-2.0037,-2.0069,-2.009,-2.0101,-2.0123,-2.0156,-2.0178,-2.0213,-2.0241,-2.0297,-2.0313,-2.0346,-2.0345,-2.0374,-2.0349,-2.0347,-2.0345,-2.0343,-2.0346,-2.0379,-2.0379,-2.038,-2.038,0,-2.0001,-2.0007,-2.0038,-2.0072,-2.0097,-2.0124,-2.015,-2.0166,-2.0181,-2.0205,-2.0241,-2.0263,-2.0307,-2.0342,-2.0375,-2.039,-2.0388,-2.0388,-2.0397,-2.0395,-2.039,-2.0393,-2.0306,-2.0386,-2.0385,-2.0385,-2.0385,-2.0384,-2.0045,-2.0071,-2.0099,-2.0133,-2.0154,-2.0179,-2.0205,-2.0221,-2.0251,-2.0288,-2.0293,-2.0332,-2.0358,-2.0402,-2.0419,-2.0449,-2.0441,-2.0453,-2.0456,-2.0459,-2.0461,-2.0385,-2.0456,-2.0455,-2.0455,-2.0455,-2.0455,0,-2.0108,-2.0126,-2.0158,-2.0195,-2.0222,-2.0219,-2.0248,-2.027,-2.0305,-2.033,-2.0358,-2.04,-2.0434,-2.0454,-2.0488,-2.0509,-2.0508,-2.0517,-2.0515,-2.0519,-2.0466,-2.0456,-2.0517,-2.0517,-2.0517,-2.0517,-2.0517,-2.0517,-2.0144,-2.0189,-2.0198,-2.0253,-2.027,-2.0309,-2.0326,-2.0349,-2.0369,-2.0416,-2.0445,-2.0458,-2.0481,-2.0517,-2.0548,-2.0553,-2.0565,-2.0575,-2.0579,-2.0529,-2.0523,-2.0516,-2.0507,-2.0577,-2.0577,-2.0629,-2.0629,-2.063]}]]